CDT,Max TemperatureF,Mean TemperatureF,Min TemperatureF,Max Dew PointF,MeanDew PointF,Min DewpointF,Max Humidity, Mean Humidity, Min Humidity, Max Sea Level PressureIn, Mean Sea Level PressureIn, Min Sea Level PressureIn, Max VisibilityMiles, Mean VisibilityMiles, Min VisibilityMiles, Max Wind SpeedMPH, Mean Wind SpeedMPH, Max Gust SpeedMPH,PrecipitationIn, CloudCover, Events, WindDirDegrees
2013-5-1,86,70,59,59,53,49,75,51,34,30.08,29.99,29.90,10,10,10,13,8,18,0.00,2,Thunderstorm,139
2013-5-2,86,48,36,51,40,35,97,85,64,30.28,30.22,30.09,10,9,2,16,11,23,0.18,8,Rain-Thunderstorm,341
2013-5-3,86,36,35,37,35,34,99,97,94,30.22,30.02,29.86,10,5,2,14,10,20,0.16,8,Rain,322
2013-5-4,86,42,35,41,37,35,99,86,66,30.03,29.92,29.82,10,9,2,10,4,,0.00,7,Rain,19
2013-5-5,86,50,36,55,47,36,100,87,64,30.06,30.01,29.95,10,8,2,18,4,29,0.25,6,Rain,313
2013-5-6,86,62,54,55,54,51,98,78,58,30.06,30.02,29.99,10,8,3,10,8,16,0.25,6,,318
2013-5-7,86,63,49,55,49,43,99,58,30,30.07,30.02,29.98,10,10,7,6,1,,0.00,0,,285
2013-5-8,76,63,50,58,54,50,99,73,42,30.03,30.00,29.94,10,10,10,13,3,20,0.00,2,,163
2013-5-9,86,68,60,64,60,55,98,81,56,29.92,29.88,29.85,10,10,5,12,6,21,0.10,5,Rain-Thunderstorm,211
2013-5-10,86,56,48,60,55,48,99,90,77,30.04,29.96,29.88,10,10,3,12,5,,0.00,7,,326
2013-5-11,86,54,45,52,39,27,100,60,28,30.22,30.10,30.03,10,9,1,20,5,28,0.00,0,,316
2013-5-12,86,49,36,38,30,23,96,49,24,30.28,30.22,30.15,10,10,10,10,2,16,0.00,0,,320
2013-5-13,86,56,38,50,42,35,95,58,31,30.19,30.11,29.96,10,10,10,13,4,17,0.00,0,,160
2013-5-14,90,73,56,53,51,49,85,48,24,29.96,29.88,29.82,10,10,10,17,8,26,0.00,0,,208
2013-5-15,90,77,67,65,57,48,77,51,38,29.92,29.88,29.83,10,10,10,13,7,18,0.00,0,,225
2013-5-16,90,71,61,64,61,54,94,73,49,29.93,29.89,29.85,10,10,5,15,4,20,0.02,3,Rain,154
2013-5-17,90,69,59,62,59,55,92,74,47,29.96,29.92,29.89,10,10,10,7,3,,0.00,6,,126
2013-5-18,90,73,61,67,64,62,99,75,50,29.96,29.90,29.81,10,10,4,14,6,18,0.00,1,,132
2013-5-19,90,76,66,72,67,61,96,72,46,29.89,29.75,29.60,10,8,4,25,9,36,0.02,3,Rain-Thunderstorm,153
2013-5-20,90,70,61,67,62,58,98,85,58,29.87,29.75,29.60,10,9,1,20,9,33,2.03,5,Rain-Thunderstorm,176
2013-5-21,90,67,61,63,58,53,99,75,53,29.78,29.74,29.67,10,10,7,10,5,18,0.38,0,,212
2013-5-22,90,62,56,59,54,51,99,74,58,29.91,29.79,29.70,10,10,10,14,5,23,0.00,5,,255
2013-5-23,90,60,54,55,52,47,98,74,66,30.23,30.09,29.91,10,10,7,12,6,18,0.00,6,,323
2013-5-24,90,60,50,53,46,38,100,64,31,30.39,30.29,30.21,10,10,5,16,5,20,0.00,1,,114
2013-5-25,90,65,53,65,53,39,92,67,50,30.24,30.17,30.06,10,10,1,15,8,18,0.33,3,Rain-Thunderstorm,126
2013-5-26,90,72,61,71,65,60,96,84,57,30.12,30.04,29.95,10,10,1,13,6,26,0.47,3,Rain-Thunderstorm,131
2013-5-27,90,67,62,68,65,61,99,92,75,30.05,29.88,29.75,10,10,4,24,8,34,0.72,6,Rain-Thunderstorm,140
2013-5-28,90,74,68,71,68,65,96,84,66,29.86,29.79,29.71,10,10,7,16,8,22,0.07,6,Rain-Thunderstorm,162
2013-5-29,90,74,65,68,64,60,90,68,52,29.92,29.84,29.74,10,10,10,18,9,28,0.00,3,,153
2013-5-30,90,72,63,67,63,59,98,81,57,29.83,29.77,29.66,10,10,3,22,9,36,0.46,5,Rain-Thunderstorm,173
2013-5-31,90,68,61,72,64,61,99,94,81,29.91,29.76,29.67,10,9,0,20,7,30,2.52,6,Rain-Thunderstorm,118